Starlink 5812

operational
NORAD ID: 55774 Int'l Des: 2023-028 Owner: SPXS Country: US Constellation: starlink
LEOCIRCULAR

About Starlink 5812

Description loading...

Live Position

Loading 3D Globe...

Upcoming Passes

Altitude History

Altitude vs Time

uPlot chart will show altitude changes over time

Two-Line Element Set

1 55774U 23028AK 26062.47734586 -.00002420 00000-0 -19499-3 0 9998
2 55774 69.9991 240.0738 0002546 267.3863 92.7005 14.98344068165607
Epoch: Mar 3, 2026 • Age: 17 hours

Current Status

Altitude 575.8 km
Velocity 7.58 km/s
Sub-Earth Point 28.29°N, 7.16°W
Launch Date Mar 3, 2023
Age 2.9 years
Type internet

Technical Details

Classification Payload
Mass 305.00 kg
Dry Mass 290.00 kg
Total Mass 305.00 kg
Length 0.20 m
Diameter 2.80 m
Span 9.00 m
Shape Box + pan
Manufacturer SPXS
Bus Type Starlink
Phase Status In Orbit
Owner/State SPXS/US

Large Constellations

Loading constellations...